Starlink 5298

operational
NORAD ID: 55281 Int'l Des: 2023-010 Owner: SPXS Country: US Constellation: starlink
LEOCIRCULAR

Starlink 5298について

説明を読み込み中...

リアルタイム位置

3D地球を読み込み中...

次回通過

高度履歴

Altitude vs Time

uPlot chart will show altitude changes over time

軌道要素

1 55281U 23010N 25303.48947782 .00000171 00000-0 22142-4 0 9993
2 55281 70.0007 12.7207 0003046 267.6266 92.4544 14.98329965153276
Epoch: Oct 30, 2025 • Age: 19 hours

現在のステータス

高度 574.3 km
速度 7.57 km/s
衛星直下点 10.39°N, 130.69°W
打ち上げ日 Jan 19, 2023
運用期間 2.7 years
タイプ internet

技術仕様

分類 Payload
質量 305.00 kg
乾燥質量 290.00 kg
総質量 305.00 kg
長さ 0.20 m
直径 2.80 m
スパン 9.00 m
形状 Box + pan
製造者 SPXS
バスタイプ Starlink
フェーズステータス In Orbit
所有者/国 SPXS/US

大規模コンステレーション

Loading constellations...